Location: G�yn�k
(36.6721°N, 30.5542°E)
Time: 00:35:11
(UTC+00:00)

BREEZE-M DEB (TANK) - Pass Details

Date: 06 October 2020
Orbit: 333 x 12040 km, 49.7° (Epoch: 26 October)

Event Time Altitude Azimuth Distance (km) Brightness Sun altitude
Rises 23:38:27 0° 176° (S) 12,503 8.7 -49.3°
Reaches altitude 10° 23:49:24 10° 169° (SSE) 12,946 8.8 -47.7°
Maximum altitude 01:12:24 49° 108° (ESE) 12,303 9.0 -33.4°
Drops below altitude 10° 02:01:46 10° 54° (NE) 9,434 9.2 -23.9°
Sets 02:07:07 0° 50° (NE) 9,435 9.4 -22.8°
